| time (UTC) | temp F | wind direction | speed MPH | gust MPH | rain 1hr in | rain 24hr in | rain mn in | humidity % | barometer mb |
| 20260902124554 | 66 | 0.0 | 0.0 | 0.00 | 0.04 | 0.00 | 82 | 1015.2 | |
| 20260902123139 | 65 | 0.0 | 0.0 | 0.00 | 0.04 | 0.00 | 83 | 1015.4 | |
| 20260902121602 | 67 | 0.0 | 0.0 | 0.00 | 0.04 | 0.00 | 76 | 1015.4 | |
| 20260902120111 | 67 | 0.0 | 0.0 | 0.00 | 0.04 | 0.00 | 76 | 1015.4 | |
| 20260902114558 | 68 | 0.0 | 0.0 | 0.00 | 0.04 | 0.00 | 75 | 1015.3 | |
| 20260902113052 | 68 | 0.0 | 0.0 | 0.00 | 0.04 | 0.00 | 80 | 1015.4 | |
| 20260902111601 | 67 | 0.0 | 0.0 | 0.00 | 0.04 | 0.00 | 80 | 1015.7 | |
| 20260902110058 | 66 | 0.0 | 0.0 | 0.00 | 0.04 | 0.00 | 80 | 1015.6 | |
| 20260902104554 | 66 | 0.0 | 0.0 | 0.00 | 0.04 | 0.00 | 80 | 1015.8 | |
| 20260902103105 | 64 | 0.0 | 0.0 | 0.00 | 0.04 | 0.00 | 84 | 1015.9 | |
| 20260902101549 | 65 | 0.0 | 0.0 | 0.00 | 0.04 | 0.00 | 82 | 1015.9 | |
| 20260902100104 | 64 | 0.0 | 0.0 | 0.00 | 0.04 | 0.00 | 85 | 1015.8 | |
| 20260902094554 | 64 | 0.0 | 0.0 | 0.00 | 0.04 | 0.00 | 86 | 1015.8 | |
| 20260902093048 | 63 | 0.0 | 0.0 | 0.00 | 0.04 | 0.00 | 87 | 1015.9 | |
| 20260902091555 | 62 | 0.0 | 0.0 | 0.00 | 0.04 | 0.00 | 91 | 1016.0 | |
| 20260902090055 | 61 | 0.0 | 0.0 | 0.00 | 0.04 | 0.00 | 92 | 1016.1 | |
| 20260902084552 | 61 | 0.0 | 0.0 | 0.00 | 0.04 | 0.00 | 93 | 1016.1 | |
| 20260902083046 | 61 | 0.0 | 0.0 | 0.00 | 0.04 | 0.00 | 93 | 1016.0 | |
| 20260902081557 | 60 | 0.0 | 0.0 | 0.00 | 0.04 | 0.00 | 95 | 1015.9 | |
| 20260902080055 | 60 | 0.0 | 0.0 | 0.00 | 0.04 | 0.00 | 95 | 1015.9 | |
| 20260902074609 | 59 | 0.0 | 0.0 | 0.00 | 0.04 | 0.00 | 96 | 1015.8 | |
| 20260902073050 | 59 | 0.0 | 0.0 | 0.00 | 0.04 | 0.00 | 96 | 1015.9 | |
| 20260902071556 | 59 | 0.0 | 0.0 | 0.00 | 0.04 | 0.00 | 96 | 1015.8 | |
| 20260902070058 | 58 | 0.0 | 0.0 | 0.00 | 0.04 | 0.00 | 96 | 1015.7 | |
| 20260902064554 | 58 | 0.0 | 0.0 | 0.00 | 0.04 | 0.00 | 97 | 1015.9 | |
| 20260902063100 | 58 | 0.0 | 0.0 | 0.00 | 0.04 | 0.00 | 97 | 1015.8 | |
| 20260902061555 | 57 | 0.0 | 0.0 | 0.00 | 0.04 | 0.00 | 97 | 1015.6 | |
| 20260902060053 | 57 | 0.0 | 0.0 | 0.00 | 0.04 | 0.00 | 97 | 1015.8 | |
| 20260902054553 | 57 | 0.0 | 0.0 | 0.00 | 0.07 | 0.00 | 97 | 1015.6 | |
| 20260902053052 | 56 | 0.0 | 0.0 | 0.00 | 0.07 | 0.00 | 97 | 1015.7 | |
| 20260902051548 | 56 | 0.0 | 0.0 | 0.00 | 0.07 | 0.00 | 97 | 1015.7 | |
| 20260902044555 | 55 | 0.0 | 0.0 | 0.00 | 0.07 | 0.00 | 97 | 1015.7 | |
| 20260902043053 | 54 | 0.0 | 0.0 | 0.00 | 0.07 | 0.00 | 97 | 1015.8 | |
| 20260902041558 | 54 | 0.0 | 0.0 | 0.00 | 0.07 | 0.00 | 96 | 1015.7 | |
| 20260902040057 | 54 | 0.0 | 0.0 | 0.00 | 0.07 | 0.00 | 96 | 1015.9 | |
| 20260902034552 | 54 | 0.0 | 0.0 | 0.00 | 0.07 | 0.00 | 97 | 1016.0 | |
| 20260902033059 | 54 | 0.0 | 0.0 | 0.00 | 0.07 | 0.00 | 96 | 1015.7 | |
| 20260902031611 | 54 | 0.0 | 0.0 | 0.00 | 0.07 | 0.00 | 96 | 1015.6 | |
| 20260902030053 | 54 | 0.0 | 0.0 | 0.00 | 0.07 | 0.00 | 96 | 1015.6 | |
| 20260902024558 | 54 | 0.0 | 0.0 | 0.00 | 0.07 | 0.00 | 95 | 1015.6 | |
| 20260902023053 | 54 | 0.0 | 0.0 | 0.00 | 0.07 | 0.00 | 95 | 1015.6 | |
| 20260902021609 | 55 | 0.0 | 0.0 | 0.00 | 0.07 | 0.00 | 95 | 1015.8 | |
| 20260902020108 | 55 | 0.0 | 0.0 | 0.00 | 0.07 | 0.00 | 95 | 1015.7 | |
| 20260902014549 | 55 | 0.0 | 0.0 | 0.00 | 0.07 | 0.00 | 95 | 1015.6 | |
| 20260902013100 | 55 | 0.0 | 0.0 | 0.00 | 0.07 | 0.00 | 95 | 1015.8 | |
| 20260902011554 | 56 | 0.0 | 0.0 | 0.00 | 0.07 | 0.00 | 95 | 1015.5 | |
| 20260902010100 | 56 | 0.0 | 0.0 | 0.00 | 0.07 | 0.00 | 96 | 1015.5 | |
| 20260902004551 | 57 | 0.0 | 0.0 | 0.00 | 0.07 | 0.00 | 96 | 1015.5 | |
| 20260902003051 | 57 | 0.0 | 0.0 | 0.00 | 0.07 | 0.00 | 96 | 1015.5 | |
| 20260902001557 | 57 | 0.0 | 0.0 | 0.00 | 0.07 | 0.00 | 96 | 1015.5 | |
| 20260902000054 | 57 | 0.0 | 0.0 | 0.00 | 0.07 | 0.00 | 95 | 1015.4 | |
| 20260901234555 | 56 | 0.0 | 0.0 | 0.00 | 0.07 | 0.00 | 96 | 1015.5 | |
| 20260901233059 | 56 | 0.0 | 0.0 | 0.00 | 0.07 | 0.00 | 95 | 1015.4 | |
| 20260901231558 | 56 | 0.0 | 0.0 | 0.00 | 0.07 | 0.00 | 95 | 1015.5 | |
| 20260901230104 | 56 | 0.0 | 0.0 | 0.00 | 0.07 | 0.00 | 94 | 1015.4 | |
| 20260901224552 | 57 | 0.0 | 0.0 | 0.00 | 0.07 | 0.00 | 94 | 1015.3 | |
| 20260901223105 | 57 | 0.0 | 0.0 | 0.00 | 0.07 | 0.00 | 95 | 1015.3 | |
| 20260901221554 | 57 | 0.0 | 0.0 | 0.00 | 0.07 | 0.00 | 95 | 1015.4 | |
| 20260901220118 | 57 | 0.0 | 0.0 | 0.00 | 0.07 | 0.00 | 95 | 1015.5 | |
| 20260901214559 | 57 | 0.0 | 0.0 | 0.00 | 0.07 | 0.07 | 95 | 1015.4 | |
| 20260901213100 | 57 | 0.0 | 0.0 | 0.01 | 0.07 | 0.07 | 95 | 1015.4 | |
| 20260901211553 | 57 | 0.0 | 0.0 | 0.03 | 0.07 | 0.07 | 95 | 1015.3 | |
| 20260901210052 | 58 | 0.0 | 0.0 | 0.03 | 0.07 | 0.07 | 94 | 1015.3 | |
| 20260901204558 | 58 | 0.0 | 0.0 | 0.03 | 0.07 | 0.07 | 93 | 1015.2 | |
| 20260901203056 | 59 | 0.0 | 0.0 | 0.02 | 0.05 | 0.05 | 93 | 1015.1 | |
| 20260901201559 | 59 | 0.0 | 0.0 | 0.00 | 0.03 | 0.03 | 92 | 1015.0 | |
| 20260901200059 | 60 | 0.0 | 0.0 | 0.00 | 0.03 | 0.03 | 93 | 1014.9 | |
| 20260901194604 | 60 | 0.0 | 0.0 | 0.00 | 0.03 | 0.03 | 91 | 1014.8 | |
| 20260901193057 | 61 | 0.0 | 0.0 | 0.00 | 0.03 | 0.03 | 90 | 1014.7 | |
| 20260901191606 | 61 | 0.0 | 0.0 | 0.00 | 0.03 | 0.03 | 90 | 1014.7 | |
| 20260901190051 | 61 | 0.0 | 0.0 | 0.00 | 0.03 | 0.03 | 89 | 1014.6 | |
| 20260901184613 | 62 | 0.0 | 0.0 | 0.00 | 0.03 | 0.03 | 89 | 1014.3 | |
| 20260901183056 | 62 | 0.0 | 0.0 | 0.00 | 0.03 | 0.03 | 90 | 1014.1 | |
| 20260901181600 | 62 | 0.0 | 0.0 | 0.00 | 0.03 | 0.03 | 89 | 1014.2 | |
| 20260901180054 | 62 | 0.0 | 0.0 | 0.00 | 0.03 | 0.03 | 89 | 1014.0 | |
| 20260901174601 | 62 | 0.0 | 0.0 | 0.00 | 0.09 | 0.03 | 88 | 1014.0 | |
| 20260901173050 | 63 | 0.0 | 0.0 | 0.00 | 0.09 | 0.03 | 86 | 1013.9 | |
| 20260901171605 | 64 | 0.0 | 0.0 | 0.00 | 0.09 | 0.03 | 83 | 1013.8 | |
| 20260901170056 | 64 | 0.0 | 0.0 | 0.00 | 0.09 | 0.03 | 82 | 1013.7 | |
| 20260901164554 | 64 | 0.0 | 0.0 | 0.00 | 0.09 | 0.03 | 81 | 1013.8 | |
| 20260901163056 | 64 | 0.0 | 0.0 | 0.00 | 0.09 | 0.03 | 80 | 1013.7 | |
| 20260901161610 | 65 | 0.0 | 0.0 | 0.00 | 0.09 | 0.03 | 79 | 1013.6 | |
| 20260901160114 | 65 | 0.0 | 0.0 | 0.00 | 0.09 | 0.03 | 80 | 1013.7 | |
| 20260901154553 | 66 | 0.0 | 0.0 | 0.00 | 0.20 | 0.03 | 78 | 1013.4 | |
| 20260901153113 | 66 | 0.0 | 0.0 | 0.00 | 0.20 | 0.03 | 78 | 1013.4 | |
| 20260901151603 | 66 | 0.0 | 0.0 | 0.00 | 0.20 | 0.03 | 79 | 1013.2 | |
| 20260901150053 | 66 | 0.0 | 0.0 | 0.00 | 0.20 | 0.03 | 80 | 1013.1 | |
| 20260901144552 | 66 | 0.0 | 0.0 | 0.00 | 0.26 | 0.03 | 80 | 1013.3 | |
| 20260901143126 | 66 | 0.0 | 0.0 | 0.00 | 0.26 | 0.03 | 79 | 1013.2 | |
| 20260901141555 | 66 | 0.0 | 0.0 | 0.00 | 0.26 | 0.03 | 80 | 1013.2 | |
| 20260901140100 | 65 | 0.0 | 0.0 | 0.00 | 0.26 | 0.03 | 80 | 1013.3 | |
| 20260901134556 | 65 | 0.0 | 0.0 | 0.00 | 0.26 | 0.03 | 81 | 1013.2 | |
| 20260901133054 | 66 | 0.0 | 0.0 | 0.00 | 0.26 | 0.03 | 81 | 1013.1 | |
| 20260901131601 | 66 | 0.0 | 0.0 | 0.00 | 0.26 | 0.03 | 81 | 1013.3 | |
| 20260901130058 | 65 | 0.0 | 0.0 | 0.00 | 0.26 | 0.03 | 82 | 1013.0 |